Evergreen, AL

9:19 PM CDT on March 23, 2017 (GMT -0500)
Middleton

Weather History for KGZH - December, 2013

Change the Weather History Date:

Tuesday, December 31, 2013

  Actual Average (KPRN) Record (KPRN)
Temperature  
Mean Temperature 44 °F -  
Max Temperature 48 °F 61 °F 80 °F (1951)
Min Temperature 39 °F 39 °F 13 °F (1983)
Degree Days  
Heating Degree Days 22    
Moisture  
Dew Point 38 °F    
Average Humidity 80    
Maximum Humidity 89    
Minimum Humidity 68    
Precipitation  
Precipitation 0.00 in - - ()
Sea Level Pressure  
Sea Level Pressure 30.37 in    
Wind  
Wind Speed 6 mph (North)    
Max Wind Speed 10 mph    
Max Gust Speed 17 mph    
Visibility 10 miles    
Events      
Averages and records for this station are not official NWS values.
T = Trace of Precipitation, MM = Missing Value Source: NWS Daily Summary

Daily Weather History Graph

Daily Weather History Graph

Search for Another Location

Airport or City:

Trip Planner

Search our weather history database for the weather conditions in past years. The results will help you decide how hot, cold, wet, or windy it might be!

Date:

Astronomy

Dec. 31, 2013 Rise Set
Actual Time 6:47 AM CST 4:55 PM CST
Civil Twilight 6:20 AM CST 5:22 PM CST
Nautical Twilight 5:50 AM CST 5:52 PM CST
Astronomical Twilight 5:20 AM CST 6:22 PM CST
Moon 5:42 AM CST (12/31) 4:28 PM CST (12/31)
Length of Visible Light 11h 01m
Length of Day
10h 08m
Waning Crescent, 1% of the Moon is Illuminated
Dec 31
Waning Crescent
Jan 1
New
Jan 7
First Quarter
Jan 15
Full
Jan 23
Last Quarter

Hourly Weather History & Observations

Time (CST) Temp. Windchill Dew Point Humidity Pressure Visibility Wind Dir Wind Speed Gust Speed Precip Events Conditions
12:08 AM 48.9 °F - 45.0 °F 86% 30.30 in 8.0 mi Variable 4.6 mph - N/A   Scattered Clouds
12:40 AM 48.0 °F - 44.1 °F 86% 30.32 in 8.0 mi NNW 10.4 mph - N/A   Mostly Cloudy
12:53 AM 48.0 °F - 44.1 °F 86% 30.32 in 8.0 mi NNW 9.2 mph - N/A   Overcast
1:53 AM 46.9 °F - 42.1 °F 83% 30.32 in 8.0 mi NNW 9.2 mph - N/A   Mostly Cloudy
2:04 AM 46.9 °F - 42.1 °F 83% 30.33 in 8.0 mi NNW 8.1 mph - N/A   Scattered Clouds
2:12 AM 46.9 °F - 41.0 °F 80% 30.32 in 8.0 mi NNW 9.2 mph - N/A   Mostly Cloudy
2:53 AM 46.0 °F 43.9 °F 41.0 °F 83% 30.33 in 8.0 mi Variable 4.6 mph - N/A   Overcast
3:14 AM 45.0 °F 40.1 °F 39.0 °F 80% 30.32 in 10.0 mi NNW 9.2 mph - N/A   Scattered Clouds
3:53 AM 44.1 °F 42.5 °F 37.9 °F 79% 30.33 in 9.0 mi NNW 3.5 mph - N/A   Clear
4:53 AM 43.0 °F 40.3 °F 37.9 °F 82% 30.35 in 9.0 mi NNW 4.6 mph - N/A   Scattered Clouds
5:04 AM 43.0 °F 39.5 °F 37.9 °F 82% 30.36 in 9.0 mi NNW 5.8 mph - N/A   Mostly Cloudy
5:29 AM 42.1 °F 39.2 °F 37.0 °F 82% 30.35 in 10.0 mi NNW 4.6 mph - N/A   Scattered Clouds
5:53 AM 42.1 °F 38.4 °F 37.0 °F 82% 30.35 in 9.0 mi NNW 5.8 mph - N/A   Scattered Clouds
6:01 AM 42.1 °F 38.4 °F 37.0 °F 82% 30.36 in 10.0 mi NNW 5.8 mph - N/A   Mostly Cloudy
6:53 AM 41.0 °F 36.4 °F 36.0 °F 82% 30.38 in 10.0 mi NNW 6.9 mph - N/A   Mostly Cloudy
7:53 AM 39.9 °F 33.9 °F 35.1 °F 83% 30.42 in 10.0 mi NNW 9.2 mph - N/A   Mostly Cloudy
8:05 AM 39.9 °F 33.9 °F 35.1 °F 83% 30.40 in 10.0 mi North 9.2 mph - N/A   Scattered Clouds
8:16 AM 39.9 °F 33.9 °F 35.1 °F 83% 30.41 in 10.0 mi North 9.2 mph 17.3 mph N/A   Mostly Cloudy
8:53 AM 41.0 °F 35.8 °F 35.1 °F 79% 30.44 in 10.0 mi North 8.1 mph - N/A   Overcast
9:53 AM 41.0 °F 36.4 °F 35.1 °F 79% 30.45 in 10.0 mi NNE 6.9 mph - N/A   Overcast
10:53 AM 43.0 °F 38.8 °F 36.0 °F 76% 30.44 in 10.0 mi NNW 6.9 mph - N/A   Overcast
11:53 AM 44.1 °F 39.5 °F 36.0 °F 73% 30.40 in 10.0 mi North 8.1 mph - N/A   Overcast
12:19 PM 44.1 °F 39.5 °F 36.0 °F 73% 30.39 in 10.0 mi NNE 8.1 mph - N/A   Mostly Cloudy
12:53 PM 45.0 °F 41.2 °F 36.0 °F 71% 30.38 in 10.0 mi NNE 6.9 mph - N/A   Overcast
1:53 PM 46.0 °F 42.5 °F 36.0 °F 68% 30.37 in 10.0 mi NE 6.9 mph - N/A   Mostly Cloudy
2:15 PM 46.0 °F 43.1 °F 37.0 °F 71% 30.35 in 10.0 mi NNE 5.8 mph - N/A   Scattered Clouds
2:24 PM 46.0 °F 41.9 °F 37.0 °F 71% 30.36 in 10.0 mi North 8.1 mph - N/A   Mostly Cloudy
2:53 PM 46.0 °F 44.8 °F 37.0 °F 71% 30.36 in 10.0 mi NNE 3.5 mph - N/A   Mostly Cloudy
3:20 PM 46.9 °F - 37.0 °F 68% 30.36 in 10.0 mi NNE 4.6 mph - N/A   Partly Cloudy
3:53 PM 46.0 °F 44.8 °F 37.9 °F 73% 30.37 in 10.0 mi North 3.5 mph - N/A   Clear
4:53 PM 45.0 °F 43.5 °F 37.9 °F 76% 30.37 in 10.0 mi North 3.5 mph - N/A   Clear
5:53 PM 44.1 °F - 37.9 °F 79% 30.38 in 10.0 mi Calm Calm - N/A   Clear
6:53 PM 43.0 °F - 37.9 °F 82% 30.38 in 10.0 mi Calm Calm - N/A   Clear
7:53 PM 43.0 °F 40.3 °F 37.9 °F 82% 30.38 in 10.0 mi NNW 4.6 mph - N/A   Clear
8:53 PM 43.0 °F 41.3 °F 37.9 °F 82% 30.39 in 10.0 mi NW 3.5 mph - N/A   Clear
9:53 PM 43.0 °F - 39.0 °F 86% 30.40 in 10.0 mi Calm Calm - N/A   Clear
10:53 PM 42.1 °F - 39.0 °F 89% 30.37 in 10.0 mi Calm Calm - N/A   Clear
11:53 PM 43.0 °F 41.3 °F 39.0 °F 86% 30.35 in 10.0 mi NNW 3.5 mph - N/A   Partly Cloudy